DW1901 Weather Reports


time (UTC)temp
F
wind
direction
speed
knots
gust
knots
rain 1hr
in
rain 24hr
in
rain mn
in
humidity
%
barometer
mb
20260504081824 43 360 0.0 0.0 0.00 0.00 0.00 74 1012.7
20260504070224 43 360 0.0 0.0 0.00 0.00 0.00 73 1012.3
20260504044924 43 360 0.0 0.0 0.00 0.00 0.00 75 1012.2
20260504043024 43 360 0.0 0.0 0.00 0.00 0.00 73 1012.0
20260504041124 44 360 0.0 0.0 0.00 0.00 0.00 72 1011.8
20260504035620 44 360 0.0 0.0 0.00 0.03 0.00 70 1011.7
20260504033740 44 360 0.0 0.0 0.00 0.03 0.00 68 1011.7
20260504031820 45 360 0.0 0.0 0.00 0.03 0.00 67 1011.7
20260504025920 46 360 0.0 0.0 0.00 0.03 0.00 65 1011.7
20260504024020 47 360 0.0 0.0 0.00 0.03 0.00 61 1011.7
20260504022120 48 360 0.0 0.0 0.00 0.03 0.00 59 1011.7
20260504020220 49 360 0.0 0.0 0.00 0.03 0.00 56 1011.7
20260504014320 50 360 0.0 0.0 0.00 0.03 0.00 53 1011.5
20260504012420 52 360 0.0 0.0 0.00 0.03 0.00 50 1011.4
20260504010520 53 360 0.0 0.0 0.00 0.03 0.00 46 1011.2
20260504004700 55 360 0.0 0.0 0.00 0.03 0.00 43 1010.9
20260504002720 56 360 0.0 1.7 0.00 0.03 0.00 40 1010.7
20260504000820 58 360 0.0 1.7 0.00 0.03 0.00 35 1010.4
20260503235000 59 360 0.0 1.7 0.00 0.03 0.00 33 1010.2
20260503233020 59 360 1.7 1.7 0.00 0.03 0.00 31 1009.9
20260503231140 60 360 2.6 4.3 0.00 0.03 0.00 29 1009.7
20260503225220 60 360 3.5 8.7 0.00 0.03 0.00 29 1009.6
20260503223320 60 360 3.5 5.2 0.00 0.03 0.00 29 1009.5
20260503221420 60 360 8.7 10.4 0.00 0.03 0.00 28 1009.5
20260503215520 59 360 3.5 10.4 0.00 0.03 0.00 28 1009.6
20260503213620 60 360 8.7 8.7 0.00 0.03 0.00 29 1009.5
20260503211720 59 360 6.1 12.2 0.00 0.03 0.00 28 1009.4
20260503205820 60 360 8.7 11.3 0.00 0.03 0.00 29 1009.5
20260503203920 59 360 2.6 8.7 0.00 0.03 0.00 29 1009.5
20260503202020 58 360 2.6 13.9 0.00 0.03 0.00 30 1009.5
20260503200120 59 360 13.0 13.0 0.00 0.03 0.00 32 1009.7
20260503194220 58 360 1.7 9.6 0.00 0.03 0.00 33 1009.7
20260503192320 57 360 5.2 12.2 0.00 0.03 0.00 32 1010.0
20260503190423 56 360 7.0 8.7 0.00 0.03 0.00 34 1010.2
20260503184520 55 360 8.7 9.6 0.00 0.03 0.00 36 1010.4
20260503182620 55 360 4.3 15.6 0.00 0.03 0.00 36 1010.5
20260503180720 54 360 3.5 15.6 0.00 0.03 0.00 37 1010.5
20260503174840 53 360 3.5 13.9 0.00 0.03 0.00 39 1010.7
20260503172919 53 360 6.1 14.8 0.00 0.03 0.00 40 1010.8
20260503171019 53 360 4.3 14.8 0.00 0.03 0.00 37 1011.0
20260503130319 47 360 6.1 6.1 0.00 0.03 0.00 54 1011.3